Flag for Ukraine Weather past 2 weeks in Kryvyi Rih, Ukraine

Now
63 °F

Overcast.


Feels Like: 63 °F
Forecast: 56 / 61 °F
Wind: 8 mph from North

Location: Krivyy Rih / Dnipropetrovs'k

Current Time: May 28, 2015 at 6:27:10 PM

Latest Report: May 28, 2015 at 6:00 PM


Visibility: N/A

Pressure: 29.59 "Hg

Humidity: 88%

Dew point: 59 °F

Location of Kryvyi RihLocation

Historic Weather in Kryvyi Rih — Graph

°F

Kryvyi Rih temperature yesterday

Maximum temperature yesterday: 79 °F (at 4:00 PM)
Minimum temperature yesterday: 57 °F (at 4:00 AM)
Average temperature yesterday: 67 °F

Past Weeks' High & Low Weather Summary

 TemperatureHumidityPressure
High88 °F (May 25, 4:00 PM)94% (May 27, 2:00 AM)30.09 "Hg (May 27, 2:00 AM)
Low43 °F (May 17, 5:00 AM)23% (May 23, 5:00 PM)29.59 "Hg (May 15, 4:30 AM)
Average65 °F53%29.89 "Hg
* Reported May 13 5:00 PM — May 28 5:30 PM, Kryvyi Rih, Weather by CustomWeather, © 2015

Note: Actual official high and low records may vary slightly from our data, if they occured in-between our weather recording intervals... More about our weather records

Advertising

Kryvyi Rih weather history for previous 24 hours

 ConditionsComfort  
Time TempWeatherWind HumidityBarometerVisibility
5:30 PM
Thu, May 28
63 °FSprinkles. More clouds than sun.13 mph88%29.59 "HgN/A
5:00 PM63 °FSprinkles. More clouds than sun.13 mph88%29.62 "Hg2 mi
4:30 PM63 °FSprinkles. More clouds than sun.15 mph88%29.62 "HgN/A
4:00 PM63 °FSprinkles. More clouds than sun.15 mph88%29.62 "Hg3 mi
3:30 PM64 °FSprinkles. More clouds than sun.15 mph88%29.62 "Hg2 mi
3:00 PM64 °FSprinkles. More clouds than sun.15 mph88%29.62 "Hg2 mi
2:30 PM64 °FMore clouds than sun.17 mph88%29.62 "HgN/A
2:00 PM64 °FSprinkles. More clouds than sun.13 mph88%29.62 "Hg3 mi
1:30 PM63 °FSprinkles. More clouds than sun.10 mph94%29.65 "Hg2 mi
1:00 PM63 °FSprinkles. More clouds than sun.8 mph94%29.65 "Hg2 mi
12:30 PM63 °FSprinkles. More clouds than sun.10 mph94%29.65 "Hg2 mi
12:00 PM63 °FSprinkles. More clouds than sun.10 mph94%29.65 "Hg3 mi
11:30 AM64 °FSprinkles. More clouds than sun.10 mph83%29.65 "Hg3 mi
11:00 AM64 °FSprinkles. More clouds than sun.10 mph83%29.62 "HgN/A
10:30 AM64 °FSprinkles. More clouds than sun.10 mph88%29.65 "HgN/A
10:00 AM64 °FOvercast.6 mph88%29.65 "HgN/A
9:30 AM63 °FOvercast.3 mph94%29.65 "HgN/A
9:00 AM63 °FOvercast.3 mph94%29.65 "HgN/A
8:30 AM63 °FSunny.3 mph88%29.65 "Hg10 mi
8:00 AM63 °FSunny.6 mph88%29.65 "Hg10 mi
7:30 AM63 °FSunny.3 mph88%29.62 "Hg10 mi
7:00 AM63 °FSunny.3 mph88%29.62 "Hg10 mi
6:30 AM61 °FSunny.3 mph88%29.62 "Hg10 mi
6:00 AM61 °FSunny.3 mph88%29.62 "Hg10 mi
5:30 AM61 °FClear.6 mph88%29.62 "Hg10 mi
5:00 AM61 °FPassing clouds.6 mph88%29.62 "HgN/A
4:30 AM61 °FClear.8 mph94%29.62 "Hg10 mi
4:00 AM61 °FFog.3 mph94%29.62 "Hg3 mi
3:30 AM63 °FClear.1 mph94%29.62 "Hg10 mi
3:00 AM63 °FClear.3 mph94%29.65 "Hg10 mi
2:30 AM63 °FClear.3 mph88%29.65 "Hg10 mi
2:00 AM63 °FClear.3 mph88%29.65 "Hg10 mi
1:30 AM63 °FClear.1 mph88%29.65 "Hg10 mi
1:00 AM63 °FClear.3 mph88%29.65 "Hg10 mi
12:30 AM64 °FClear.3 mph83%29.65 "Hg10 mi
12:00 AM64 °FClear.3 mph83%29.68 "Hg10 mi
11:30 PM
Wed, May 27
63 °FPassing clouds.3 mph83%29.68 "HgN/A
11:00 PM63 °FClear.6 mph83%29.68 "Hg10 mi
10:30 PM64 °FPassing clouds.6 mph78%29.68 "HgN/A
10:00 PM64 °FClear.No wind78%29.68 "Hg10 mi
9:30 PM66 °FSunny.3 mph78%29.68 "Hg10 mi
9:00 PM66 °FBroken clouds.6 mph78%29.68 "HgN/A
8:30 PM68 °FBroken clouds.6 mph73%29.68 "HgN/A
8:00 PM68 °FBroken clouds.3 mph73%29.68 "HgN/A
7:30 PM68 °FBroken clouds.6 mph78%29.68 "HgN/A
7:00 PM68 °FThundershowers. Broken clouds.6 mph78%29.68 "HgN/A
6:30 PM77 °FThundershowers. Broken clouds.15 mph44%29.68 "HgN/A
6:00 PM77 °FBroken clouds.8 mph44%29.68 "HgN/A
Weather by CustomWeather, © 2015

See weather overviewHow to use our weather pages